Location: Newark
(51.0500°N, 12.4500°E)
Time: 23:49:29
(UTC+00:00)

Vanguard 1 - Pass Details

Date: 24 February 2020
Orbit: 649 x 3833 km, 34.2° (Epoch: 08 April)

Event Time Altitude Azimuth Distance (km) Brightness Sun altitude
Rises 08:58:03 0° 250° (WSW) 7,855 14.5 21.7°
Reaches altitude 10° 09:04:13 10° 245° (WSW) 6,590 14.2 22.3°
Maximum altitude 09:21:41 40° 186° (S) 3,414 13.9 23.9°
Drops below altitude 10° 09:32:24 10° 121° (ESE) 4,118 14.4 24.8°
Sets 09:35:16 0° 114° (ESE) 4,759 14.4 25.0°
